Regional Weather Roundup
Issued by NWS

Home | Current Version | Previous Version | Text Only | Print | Product List | Glossary On
Versions: 1 2 3 4 5 6 7 8 9 10 11 12 13 14 15 16 17 18 19 20 21 22 23 24 25 26 27 28 29 30 31 32 33 34 35 36 37 38 39 40 41 42 43 44 45 46 47 48 49 50
000
ASUS43 KLOT 040812
RWRIL

ILLINOIS REGIONAL WEATHER ROUNDUP
NATIONAL WEATHER SERVICE CHICAGO/ROMEOVILLE IL
200 AM CST SUN DEC 04 2016

NOTE: "FAIR" INDICATES FEW OR NO CLOUDS BELOW 12,000 FEET WITH NO
SIGNIFICANT WEATHER AND/OR OBSTRUCTIONS TO VISIBILITY.

* THESE STATIONS ARE NOT UNDER NWS QUALITY CONTROL. THEY ALSO MAY NOT
  REPORT WEATHER SUCH AS PRECIPITATION OR FOG.

ILZ001-002-007-009-015-016-024-040900-
NORTHWEST ILLINOIS

CITY           SKY/WX    TMP DP  RH WIND       PRES   REMARKS
MOLINE         CLOUDY    35  27  72 SE7       30.19F WCI  29
STERLING*      PTCLDY    32  29  88 SE6       30.22  WCI  26
SAVANNA*       CLOUDY    33  28  85 SE3       30.21S
$$

ILZ003-004-008-010-011-017-018-040900-
NORTH CENTRAL ILLINOIS

CITY           SKY/WX    TMP DP  RH WIND       PRES   REMARKS
ROCKFORD       CLOUDY    33  27  78 S6        30.24S WCI  28
FREEPORT*      CLOUDY    32  28  86 SE6       30.22S WCI  26
ROCHELLE*      CLOUDY    32  29  90 S7        30.23S WCI  25
DE KALB*       CLOUDY    31  28  89 SE6       30.22F WCI  25
$$

ILZ005-006-012>014-019>023-040900-
NORTHEAST ILLINOIS

CITY           SKY/WX    TMP DP  RH WIND       PRES   REMARKS
CHICAGO-OHARE  CLOUDY    32  25  75 CALM      30.24S
CHICAGO-MIDWAY MOCLDY    32  25  75 CALM      30.25S
AURORA         CLOUDY    32  27  81 CALM      30.24S
LANSING*       PTCLDY    31  28  92 CALM      30.24F
JOLIET*        CLOUDY    32  29  90 CALM      30.25R
WAUKEGAN       CLOUDY    31  26  82 CALM      30.22F
DUPAGE AIRPORT CLOUDY    31  26  82 CALM      30.23S
KANKAKEE*      CLOUDY    32  28  84 CALM      30.25R
WHEELING       CLOUDY    32  24  72 SW3       30.26S
MORRIS*        CLOUDY    32  28  86 CALM      30.24R
ROMEOVILLE*    CLOUDY    30  30  97 CALM      30.25S
NORTHERLY ISL    N/A     33  24  70 SW7         N/A  WCI  27
$$

LMZ740>746-040900-
SOUTHERN LAKE MICHIGAN

STATION/POSITION SKY/WX   TEMP    WIND        PRES    VSBY  WAVE
                          AIR SEA DIR/SP/G                  HT/PER
                          (F)     (DEG/KT/KT) (MB)    (MI)  (FT/S)
SOUTHERN BUOY              36 48  230/  2/  4 1024.3F         1
HARRISON CRIB              35     200/  7/  9   N/A
BURNHAM HARBOR             33     220/  6/  6   N/A
CALUMET HARBOR             32     230/  4/  5 1023.6F
BURNS HARBOR               33     180/  5/  7 1024.4F
MICHIGAN CITY              32     120/  5/  6   N/A
$$

ILZ025>027-034>036-040-047-049-050-058-095>099-040900-
WEST-CENTRAL ILLINOIS

CITY           SKY/WX    TMP DP  RH WIND       PRES   REMARKS
QUINCY         CLOUDY    37  34  89 SE6       30.14F WCI  32
GALESBURG*     CLOUDY    32  29  88 E6        30.18F WCI  27
MACOMB*        CLOUDY    34  32  92 SE12      30.20S WCI  25
JACKSONVILLE*  CLOUDY    36  32  87 E9        30.18S WCI  29
PITTSFIELD*    CLOUDY    38  34  87 E5        30.16F WCI  34
$$

ILZ028>032-037-038-041>044-048-051>054-059>061-040900-
CENTRAL ILLINOIS

CITY           SKY/WX    TMP DP  RH WIND       PRES   REMARKS
PONTIAC        CLOUDY    32  31  96 CALM      30.25R
BLOOMINGTON    CLOUDY    31  28  89 E8        30.22F WCI  23
DECATUR        CLOUDY   N/A N/A N/A E7        30.22S
PEORIA         CLOUDY    33  28  81 E5        30.21F WCI  29
LACON*         CLOUDY    32  27  83 E6        30.22F WCI  26
LINCOLN*       CLOUDY    34  31  89 E5        30.22F WCI  30
SPRINGFIELD    CLOUDY    36  31  82 E7        30.20F WCI  30
TAYLORVILLE    CLOUDY    34  31  88 E7        30.20F WCI  28
$$

ILZ033-039-045-046-055>057-062-063-040900-
EAST-CENTRAL ILLINOIS

CITY           SKY/WX    TMP DP  RH WIND       PRES   REMARKS
CHAMPAIGN      CLOUDY    32  28  85 E6        30.22S WCI  26
RANTOUL*       CLOUDY    34  31  88 E3        30.22S
MATTOON        CLOUDY    34  28  79 E5        30.20F WCI  30
PARIS*         CLOUDY    33  30  90 E5        30.24S WCI  28
$$

ILZ079-100>102-040900-
SOUTHWEST ILLINOIS

CITY           SKY/WX    TMP DP  RH WIND       PRES   REMARKS
ALTON          CLOUDY    37  33  83 E6        30.16F WCI  33
BELLEVILLE     CLOUDY    39  35  86 E6        30.14F WCI  35
CAHOKIA*       CLOUDY    41  32  70 SE9       30.15F
SPARTA*        LGT RAIN  38  33  82 E9        30.16F WCI  32
$$

ILZ064>066-069>071-074>076-080>082-084>086-088>090-092>094-040900-
SOUTH-CENTRAL ILLINOIS

CITY           SKY/WX    TMP DP  RH WIND       PRES   REMARKS
CARBONDALE     LGT RAIN  39  34  82 E8        30.17F WCI  33
CAIRO*         CLOUDY    38  37  94 NE9       30.15F WCI  32
EFFINGHAM*     CLOUDY    36  32  86 E6        30.22F WCI  31
MARION         DRIZZLE   41  36  81 E3        30.19F
CENTRALIA*     CLOUDY    38  33  81 E7        30.16F WCI  33
SALEM*         CLOUDY    39  32  76 E6        30.18F WCI  34
METROPOLIS*    DRIZZLE   39  37  90 CALM      30.19R
$$

ILZ067-068-072-073-078-083-087-091-040900-
SOUTHEAST ILLINOIS

CITY           SKY/WX    TMP DP  RH WIND       PRES   REMARKS
LAWRENCEVILLE  CLOUDY    37  31  78 NE6       30.22F WCI  32
FLORA*         CLOUDY    38  32  78 E7        30.20F WCI  33
FAIRFIELD*     CLOUDY    38  32  79 E5        30.19F WCI  34
HARRISBURG*    RAIN      40  33  78 E5        30.20R
ROBINSON*      CLOUDY    35  31  83 E5        30.24S WCI  31
CARMI*         CLOUDY    38  34  84 NE7       30.20S WCI  33
$$

ABBREVIATIONS USED IN REMARKS
   TC - TEMPERATURE IN CELSIUS
  WCI - WIND CHILL INDEX
   HX - HEAT INDEX
  VSB - VISIBILITY
$$




USA.gov is the U.S. government's official web portal to all federal, state and local government web resources and services.